Lapse_Rate
5.8 5.8 5.8 5.7 5.7 5.8 5.8 5.9 6.1 6.3 6.4 6.5 6.6 6.8 7.0 7.0 7.0 7.0 6.8 7.2 7.1 7.1 7.3 7.3 7.4 7.7 7.7 8.0 8.3 8.6 8.2 8.0 9.6 9.5 7.7 6.4 6.3 6.7 7.0 7.5 7.6 8.1 8.0 7.5 7.0
5.6 5.7 5.8 5.9 5.9 5.9 5.9 6.0 6.2 6.4 6.5 6.7 6.8 6.8 6.9 6.9 6.9 6.9 7.1 7.1 7.1 7.1 7.0 7.0 6.7 7.0 7.3 7.5 7.7 8.3 8.5 9.1 8.4 8.7 7.7 6.9 6.4 7.0 6.8 7.3 7.3 7.5 7.5 7.2 7.1
5.8 5.7 5.8 5.9 6.1 6.1 6.1 6.1 6.2 6.5 6.6 6.8 6.8 6.9 6.9 6.9 6.8 6.3 7.1 7.2 7.3 7.2 7.0 7.0 6.9 6.8 7.4 7.6 7.9 8.4 8.9 8.4 7.6 7.8 8.0 7.4 7.0 6.1 7.0 7.3 7.4 7.3 7.2 7.3 7.3
5.8 5.9 5.9 5.9 6.1 6.3 6.4 6.4 6.4 6.5 6.6 6.8 6.9 6.9 6.8 6.8 6.3 7.0 7.1 7.2 7.3 7.3 7.2 7.0 6.7 6.7 7.5 7.7 7.8 8.3 7.9 8.3 7.5 8.0 8.0 7.0 7.3 7.5 7.5 7.8 7.6 7.4 7.2 7.2 7.3
5.8 6.0 6.1 6.1 6.1 6.3 6.5 6.6 6.6 6.6 6.7 6.8 6.9 6.9 7.0 6.8 6.1 7.1 7.1 7.3 7.4 7.3 7.2 6.9 6.7 7.1 7.7 7.9 7.7 8.0 7.0 6.9 7.8 8.1 6.9 7.6 8.1 8.1 7.9 7.6 7.5 7.4 7.3 7.3 7.2
5.7 5.9 6.1 6.3 6.3 6.4 6.6 6.7 6.7 6.7 6.8 6.9 6.9 6.9 7.0 6.5 7.2 7.2 7.2 7.3 7.4 7.3 7.1 7.1 6.9 7.2 7.6 8.1 7.5 6.9 6.7 6.4 6.3 7.5 7.8 7.4 7.5 7.4 7.6 7.4 7.0 7.0 7.1 7.0 6.9
5.7 5.8 6.0 6.3 6.4 6.5 6.7 6.8 6.9 6.9 7.0 6.9 7.0 6.9 6.9 6.2 7.1 7.3 7.3 7.3 7.5 7.4 6.8 7.3 6.9 6.9 7.3 7.2 6.6 6.3 6.7 6.3 6.0 6.4 6.6 7.9 8.0 7.9 7.5 7.3 7.0 6.9 7.1 7.0 6.8
5.8 5.9 6.0 6.2 6.4 6.5 6.7 6.9 6.9 7.0 7.0 7.0 6.9 6.9 6.5 7.2 7.3 7.4 7.4 7.3 7.4 7.3 7.4 7.4 7.2 7.0 7.1 6.8 6.5 6.9 6.7 7.0 6.4 6.2 6.4 7.3 6.6 7.9 7.7 7.3 7.1 6.9 7.0 7.0 6.9
5.7 6.0 6.1 6.2 6.4 6.5 6.6 6.8 7.0 7.0 6.9 6.9 6.8 6.8 6.2 7.3 7.2 7.5 7.4 7.2 7.2 7.2 7.3 7.3 7.0 6.9 6.7 7.0 7.2 7.3 7.5 8.0 6.7 6.9 7.4 7.4 6.4 7.5 7.4 7.3 7.5 6.9 6.8 6.9 7.1
5.8 6.0 6.1 6.3 6.3 6.4 6.6 6.7 6.9 7.0 7.0 6.9 6.8 6.7 6.7 6.5 7.2 7.3 7.4 7.3 7.1 7.1 7.2 7.3 7.0 7.0 7.0 7.5 8.1 7.8 9.3 8.3 7.4 6.7 7.3 7.3 6.4 7.4 7.3 7.3 7.3 7.4 6.9 6.8 7.1
5.6 5.9 6.0 6.1 6.4 6.4 6.5 6.6 6.7 6.7 7.1 6.8 6.2 6.5 6.8 6.9 7.1 7.2 7.3 7.3 7.1 6.5 7.2 7.2 7.5 7.6 7.9 8.4 9.5 8.7 9.3 9.1 7.5 7.3 7.4 7.0 6.9 7.6 7.3 7.1 6.8 6.4 6.7 6.8 6.9
5.4 5.6 5.9 6.1 6.2 6.3 6.5 6.4 6.9 6.8 7.0 7.0 6.9 6.9 7.0 7.0 6.7 6.5 7.2 6.8 6.6 7.3 7.7 7.6 7.8 8.3 8.4 9.0 9.2 9.4 9.4 9.0 6.7 7.2 7.6 7.2 6.8 7.2 7.2 6.2 6.0 6.1 6.6 6.9 6.8
5.3 5.5 5.5 5.8 6.1 6.1 6.2 6.6 6.6 6.7 6.6 6.5 6.9 6.9 6.8 6.9 6.6 6.5 7.1 6.8 7.0 7.7 7.7 8.3 8.7 8.5 8.6 8.6 8.9 9.3 9.3 8.4 8.0 7.3 7.8 7.6 7.3 6.8 6.6 6.7 7.3 7.1 7.0 6.7 6.7
5.3 5.2 5.4 5.6 5.8 6.1 6.2 6.3 6.6 6.7 6.4 6.6 7.1 7.0 6.5 6.8 6.4 6.5 6.7 6.9 7.2 7.8 7.9 8.5 7.8 8.1 8.5 8.5 8.9 9.1 8.9 8.2 7.8 8.1 8.5 7.9 9.1 7.2 6.6 6.3 6.6 6.7 6.8 6.8 6.7
5.3 5.2 5.2 5.5 5.7 5.8 6.5 6.3 6.4 6.5 6.5 7.0 6.3 6.4 6.8 6.6 6.7 6.9 6.7 6.6 7.4 7.8 7.7 7.9 7.4 7.7 8.1 8.6 8.7 9.4 8.5 8.5 8.0 8.4 8.2 7.8 8.2 9.2 7.0 6.6 6.1 6.1 6.5 6.5 6.5
5.2 5.3 5.3 5.3 5.6 5.9 6.0 6.1 6.4 6.3 5.9 6.6 6.1 6.6 6.2 6.3 6.5 6.5 7.0 6.8 7.4 7.2 7.4 7.5 7.6 7.7 8.1 8.3 8.5 7.7 8.1 8.1 8.3 8.7 8.3 8.4 8.1 8.4 7.1 6.8 6.3 5.7 5.9 6.4 6.4
5.2 5.4 5.3 5.4 5.2 5.8 6.0 5.9 5.9 5.5 6.8 6.6 6.3 6.2 6.5 6.5 6.6 6.5 6.8 6.8 7.2 7.4 7.3 7.0 7.2 7.0 7.2 7.7 7.4 7.8 7.8 8.3 8.4 8.6 8.1 8.9 8.6 8.2 7.8 6.9 6.3 5.5 5.6 6.3 6.2
5.2 5.4 5.3 5.2 5.5 5.5 5.6 5.8 5.2 6.2 7.0 6.8 6.8 6.5 6.7 6.7 6.6 6.7 6.9 7.1 7.5 7.8 7.8 7.7 6.9 6.9 7.1 7.5 7.5 7.7 7.9 8.6 8.1 9.1 9.3 7.8 8.0 8.1 7.3 6.4 6.2 5.4 5.5 6.0 5.9
5.4 5.3 5.1 5.1 5.3 5.2 5.2 4.9 5.3 6.2 7.4 6.8 6.9 6.8 7.0 6.9 6.9 6.9 7.1 7.4 7.6 7.9 8.1 8.0 7.9 7.2 7.1 7.4 7.4 7.8 8.0 8.7 8.0 8.1 9.2 8.1 7.3 6.6 6.6 6.3 6.0 5.3 5.5 6.0 5.8
5.5 5.3 5.0 5.0 5.3 5.2 4.5 4.6 5.7 6.0 6.5 6.9 7.3 7.4 7.3 7.1 6.7 7.0 7.2 7.4 7.7 7.6 7.9 8.0 7.4 6.8 6.7 6.9 7.3 7.4 7.8 7.4 7.6 7.4 8.2 9.4 8.6 7.8 6.4 6.1 5.8 5.4 5.8 5.7 5.4
5.6 5.1 4.9 5.5 5.2 5.0 4.2 4.5 5.3 5.6 6.0 6.7 7.5 7.6 7.7 7.3 7.0 7.2 7.5 7.5 7.6 7.4 7.4 7.5 7.4 6.8 6.4 6.8 7.2 7.0 7.2 7.3 7.5 8.1 8.7 9.1 8.8 7.9 7.7 6.4 6.1 6.0 6.0 5.6 5.4
5.6 4.5 5.0 5.3 5.1 4.5 4.2 5.0 5.7 5.7 5.9 6.2 6.6 7.3 7.4 7.7 7.4 7.4 7.7 7.6 7.5 7.3 7.2 7.3 7.4 6.9 6.8 7.2 7.4 7.2 7.4 7.2 6.7 6.9 7.5 7.3 7.8 7.8 6.9 6.6 6.3 6.0 5.9 5.6 5.5
5.1 4.9 5.2 5.1 4.8 4.6 4.7 5.1 5.5 5.6 6.3 6.5 6.6 6.9 7.0 7.6 7.5 7.3 7.5 7.6 7.3 7.0 7.3 7.2 7.4 7.1 7.2 6.6 6.6 6.8 7.2 7.4 7.1 6.6 6.5 7.5 7.8 8.0 7.0 6.6 6.5 6.2 6.2 6.0 5.9
4.8 5.1 5.5 5.4 5.1 5.3 5.1 5.5 5.7 5.8 6.0 6.5 6.6 6.6 6.9 7.1 7.3 7.3 7.4 7.5 7.1 7.1 7.2 7.2 7.7 7.6 7.6 7.6 7.2 6.7 7.0 7.0 7.4 7.0 7.7 7.7 8.2 7.6 7.0 6.7 6.5 6.3 6.4 6.1 6.5
4.7 5.1 5.7 5.6 5.5 5.3 5.8 5.9 5.8 6.0 6.1 6.3 6.6 6.9 7.2 7.1 7.3 7.1 7.5 7.2 7.2 7.1 6.8 6.8 7.3 7.5 7.8 8.2 7.8 7.4 7.3 7.2 7.3 7.3 7.8 8.3 8.4 7.8 7.2 7.0 6.7 6.5 6.3 6.1 6.9
4.8 5.1 5.6 6.0 6.0 5.8 5.8 5.9 6.1 6.4 6.4 6.4 6.5 7.2 7.3 7.3 7.2 7.2 7.3 7.0 7.3 7.0 6.9 6.8 7.2 7.5 7.6 7.2 7.5 7.7 7.5 7.5 7.3 7.4 7.6 8.3 8.4 8.1 7.1 6.8 6.5 6.4 6.6 6.6 7.1
5.0 5.0 5.2 5.7 5.9 6.1 6.2 6.1 6.2 6.4 6.4 6.5 6.8 7.2 7.7 7.5 6.7 6.7 7.0 7.2 7.6 7.1 7.0 6.8 6.9 7.3 6.9 7.2 7.4 7.2 7.5 7.6 7.5 7.5 7.7 7.9 8.2 7.8 7.3 6.9 6.9 6.9 6.8 6.9 7.0
Wind_Speed
14 15 15 15 16 16 17 17 18 18 18 17 16 16 16 18 23 10 11 7 9 15 12 12 10 11 11 15 12 4 8 14 15 12 15 14 15 13 16 19 20 14 18 12 8
14 15 16 16 16 16 17 18 18 18 18 18 17 17 17 17 11 9 9 6 9 10 11 9 11 11 13 13 8 11 13 25 7 12 19 14 18 18 17 20 21 19 15 14 13
14 15 17 17 17 18 18 18 19 18 18 18 18 19 18 17 10 4 8 4 8 11 12 9 9 11 16 10 13 16 13 10 11 9 15 16 14 20 17 16 15 14 14 14 14
13 15 18 19 19 18 19 19 19 19 18 18 19 20 22 11 1 9 4 5 7 11 8 9 12 14 15 15 10 8 6 8 16 19 14 11 19 18 20 14 11 12 12 14 15
12 14 17 20 20 21 20 19 19 20 19 18 18 18 11 8 3 11 4 9 9 7 9 9 12 14 15 15 13 12 8 19 19 16 20 16 12 13 16 12 12 12 14 14 14
13 13 16 19 21 22 22 20 20 20 20 18 18 19 10 11 5 3 2 4 5 7 6 8 9 9 13 11 12 14 14 14 15 20 22 22 15 7 9 10 11 12 14 14 14
14 15 16 18 22 23 23 23 21 20 19 18 15 8 9 3 1 2 4 4 1 4 6 2 7 9 3 6 16 21 23 19 16 19 16 26 14 13 10 10 11 12 13 14 14
16 14 16 19 22 24 25 25 24 22 18 15 11 9 8 2 5 6 3 6 5 5 4 2 8 12 11 14 16 18 20 17 16 19 12 6 10 9 7 10 12 11 10 11 14
15 17 18 20 23 26 28 28 26 16 9 7 7 9 7 8 9 3 4 3 5 6 5 2 8 8 9 19 15 16 17 16 13 15 13 12 14 11 6 8 10 9 10 10 11
15 18 18 21 25 28 31 29 6 5 7 9 9 6 7 10 6 3 4 5 8 10 8 9 8 10 15 16 16 17 18 20 14 12 11 8 14 12 11 11 9 8 8 9 10
15 18 19 21 25 31 19 4 5 6 12 9 2 7 3 5 6 9 6 9 9 12 13 15 11 15 21 21 17 17 15 14 16 9 12 12 15 14 12 10 10 9 8 8 10
16 18 20 23 27 30 11 4 6 5 7 19 9 9 3 2 9 9 9 11 13 15 16 12 15 18 18 19 11 19 13 16 10 5 6 15 14 13 10 9 7 8 9 11 10
19 19 19 24 29 13 5 6 7 5 6 9 16 13 11 10 11 14 14 12 14 16 13 14 9 8 13 10 13 13 19 15 13 12 7 12 10 13 13 12 8 6 6 8 10
19 20 18 26 12 7 1 8 7 3 5 12 10 10 14 9 8 8 13 9 8 14 16 13 6 10 13 16 14 11 12 17 16 16 9 17 6 17 16 14 12 12 12 11 10
16 18 18 12 10 4 6 11 6 3 4 15 13 10 15 13 12 13 10 8 14 11 8 5 9 14 16 16 15 9 5 11 13 16 10 14 8 11 19 16 16 14 13 11 10
17 17 18 11 7 6 10 12 3 4 8 9 10 14 19 19 11 15 13 10 9 10 12 7 10 12 14 9 10 11 13 10 11 10 8 14 13 11 17 17 17 16 14 13 12
20 20 14 15 8 9 10 4 4 6 3 9 10 18 21 15 15 15 18 16 11 16 14 9 11 4 7 14 8 16 16 8 8 9 12 14 14 12 8 14 18 19 17 14 12
23 26 12 12 12 11 6 6 8 6 13 2 7 15 19 19 17 18 19 19 19 16 15 13 8 14 15 15 12 20 18 6 10 12 12 8 7 7 8 10 16 18 17 15 14
28 7 7 6 5 5 7 8 5 9 12 7 11 16 15 16 11 19 22 21 23 20 10 14 8 13 15 10 8 17 14 6 3 3 4 8 3 1 9 14 18 20 18 17 15
7 9 10 4 6 7 9 13 10 3 9 10 13 16 18 20 12 17 18 20 20 17 6 8 11 14 9 8 11 9 11 5 5 3 6 9 14 7 18 19 19 20 19 17 15
7 4 3 4 5 8 10 13 14 5 7 9 17 12 12 15 18 21 13 7 21 20 8 9 7 14 13 16 17 8 11 7 7 8 6 5 5 7 22 22 22 20 19 17 16
3 3 3 5 8 8 12 17 9 8 8 9 8 9 13 15 18 18 20 14 16 17 19 13 8 15 20 12 15 19 14 15 4 4 4 3 2 1 16 21 21 20 18 17 17
3 3 3 6 5 7 11 18 19 12 12 8 9 11 9 10 9 17 15 3 14 19 18 12 8 13 14 6 10 13 21 18 14 5 6 4 2 5 14 20 20 20 18 17 17
2 3 4 5 9 11 15 16 17 12 17 11 8 4 10 11 12 10 13 5 10 17 1 14 11 16 12 7 12 24 21 19 19 10 9 10 7 11 15 21 21 20 19 19 17
2 3 3 3 7 13 14 9 19 20 14 12 14 14 13 6 13 11 16 8 9 9 9 13 16 17 16 9 11 19 25 24 23 22 14 12 15 15 18 21 22 20 20 20 19
2 3 5 11 12 13 14 15 14 16 17 17 15 16 11 11 13 11 13 11 10 13 16 14 12 15 10 9 13 13 22 24 26 22 22 14 9 12 17 18 20 21 22 21 20
2 2 3 7 9 11 10 16 15 14 8 16 13 16 15 9 1 8 11 9 6 14 18 17 10 11 10 13 12 13 17 23 21 24 23 18 13 9 17 20 22 22 23 21 21
Wind_Direction
1 356 355 352 349 346 341 340 337 336 332 328 326 326 323 323 309 233 244 42 346 328 310 264 246 237 224 237 243 229 183 265 262 193 122 131 104 90 90 94 77 83 82 89 88
358 357 353 351 349 345 340 336 334 332 329 326 324 321 319 320 279 250 81 22 319 305 271 245 223 202 213 223 214 214 226 198 4 69 129 140 129 125 114 98 91 90 88 90 85
355 353 351 348 347 343 339 335 330 328 326 325 323 319 316 314 258 142 78 331 307 284 267 271 283 234 227 209 215 216 231 136 105 78 104 123 134 100 101 81 71 90 93 89 92
349 348 348 344 340 338 335 333 329 324 323 322 321 319 314 274 307 90 99 289 279 282 267 241 230 216 228 202 175 180 337 141 114 117 101 87 79 71 77 87 87 80 83 91 81
329 339 342 341 338 335 330 327 325 321 318 315 314 315 300 222 236 120 212 216 243 243 256 223 230 220 222 203 176 219 117 112 136 118 119 126 94 91 90 98 101 94 83 74 76
312 325 331 335 334 332 328 322 319 315 311 308 308 311 245 252 77 164 266 234 255 232 229 235 230 247 263 152 193 135 137 116 122 114 119 122 127 113 100 106 91 88 83 76 69
322 315 319 328 328 328 325 317 310 307 302 296 294 286 263 298 221 233 173 260 272 274 222 268 287 225 139 106 110 136 130 124 136 136 137 125 88 106 122 118 103 92 83 74 67
327 326 319 323 322 321 319 314 306 301 293 282 275 267 270 123 303 226 200 185 201 202 265 240 243 247 188 128 147 165 152 150 158 154 176 278 119 121 142 137 116 108 93 81 69
323 324 321 321 320 318 316 309 299 288 251 235 244 231 252 127 214 153 233 208 175 177 179 206 227 200 136 172 172 185 177 173 156 193 158 216 135 141 151 132 121 123 116 104 88
319 323 322 320 320 318 315 298 287 262 224 214 256 254 226 216 149 185 165 210 183 170 166 195 199 186 191 192 189 187 205 152 159 173 196 160 125 148 162 149 132 129 115 103 91
327 326 326 322 320 317 315 213 199 197 205 216 221 254 133 164 185 213 173 183 201 190 190 198 204 200 197 202 203 187 219 155 120 161 147 141 145 152 166 156 163 146 128 104 94
331 327 328 323 318 314 292 285 32 348 271 228 237 251 263 286 202 191 183 194 189 199 202 185 225 203 208 210 254 199 186 128 117 159 221 154 154 158 173 168 154 140 138 134 126
346 328 330 322 315 300 28 27 330 308 257 197 220 221 195 209 220 183 196 214 197 208 202 204 194 148 199 192 229 198 187 162 166 165 187 164 161 170 179 161 152 143 125 124 126
343 336 331 325 294 335 159 355 349 310 260 174 197 214 199 213 222 172 210 203 209 206 193 224 117 193 186 201 209 192 189 165 152 175 184 206 232 187 178 184 185 163 162 147 136
332 340 330 314 306 285 12 341 328 243 249 152 150 132 175 199 135 195 190 215 195 180 188 160 186 192 202 203 203 164 128 168 181 208 188 194 243 212 172 193 187 174 162 156 144
327 325 333 282 262 292 324 316 242 217 237 171 160 188 179 206 212 148 186 235 212 168 214 144 171 194 206 196 194 138 156 181 201 226 225 226 211 207 187 202 186 175 168 161 153
329 320 307 300 280 332 316 248 199 213 160 174 185 180 188 183 192 181 185 189 173 179 169 163 167 129 151 158 174 178 164 173 205 212 235 228 207 223 178 186 188 175 174 167 161
322 309 276 265 285 302 272 213 217 188 214 147 174 184 196 179 198 197 192 193 216 197 165 172 180 175 184 187 182 193 191 191 211 211 225 134 240 223 155 170 173 168 172 169 172
313 303 269 248 242 245 235 209 204 240 206 181 179 187 196 188 203 201 206 209 205 208 177 199 162 170 178 185 202 194 207 301 307 270 274 181 158 157 159 171 163 169 172 176 181
306 301 266 206 211 243 226 226 224 289 304 217 190 193 193 192 202 196 198 216 198 213 175 183 144 169 164 220 209 249 188 202 227 218 225 222 196 212 180 177 170 173 177 177 182
282 268 116 172 204 221 221 226 240 221 276 248 227 204 219 196 203 199 200 196 202 196 184 215 164 183 165 204 187 182 210 210 248 245 257 209 221 350 179 180 176 176 179 178 177
341 248 132 184 204 216 225 228 265 254 235 256 282 237 225 205 199 207 226 190 223 183 197 197 204 178 199 199 217 198 216 192 176 233 237 317 338 70 170 178 179 179 180 176 176
291 288 208 213 233 227 229 238 248 240 238 217 232 228 221 220 207 227 212 235 196 187 197 158 174 171 176 196 228 232 204 210 201 178 222 205 226 176 165 175 181 180 177 174 176
298 277 235 222 254 253 218 235 230 223 263 242 258 232 213 220 213 212 209 144 193 208 275 172 214 200 191 202 189 206 212 208 209 214 221 217 159 175 178 178 180 181 177 175 178
222 261 32 214 236 244 250 232 227 227 224 231 238 234 212 197 218 218 210 137 195 208 210 202 231 212 229 263 194 201 206 203 210 215 219 228 233 177 188 183 181 178 177 177 181
268 322 329 282 272 234 242 245 238 228 227 223 238 226 221 232 208 216 206 181 183 190 208 200 228 227 226 231 236 214 206 211 212 216 230 236 238 162 181 182 180 182 181 183 183
211 224 272 281 274 247 231 232 240 236 239 238 235 239 227 235 355 352 313 212 225 186 199 198 216 219 209 219 216 226 218 207 214 219 222 223 216 159 175 189 186 186 186 187 184